Theta_e
299 299 299 299 299 298 298 297 297 297 297 298 298 298 299 303 305 303 304 303 301 300 301 302 307 306 307 308 307 307 303 304 306 306 308 306 306 309 310 309 310 322 325 327 330
299 299 299 298 298 298 297 296 296 296 297 297 297 298 298 303 306 301 300 300 298 300 301 301 303 307 307 307 307 303 302 304 304 304 304 306 306 308 308 307 309 312 316 322 328
300 299 298 298 297 297 296 296 296 296 296 297 297 297 298 302 302 296 297 297 298 297 299 300 302 307 307 306 305 303 303 303 304 308 306 305 306 307 308 306 308 309 310 312 335
300 299 298 297 297 296 295 295 295 295 296 296 296 297 302 305 299 294 295 295 297 298 298 300 302 306 305 305 307 306 304 306 306 306 305 304 306 305 307 308 310 310 309 310 320
299 298 297 296 296 295 295 294 295 295 296 296 297 298 302 296 294 294 295 295 295 298 299 300 302 304 304 304 306 305 304 305 304 303 302 303 304 304 305 308 309 310 310 310 315
296 297 296 295 294 294 294 294 295 295 297 298 299 300 299 293 293 294 294 295 296 298 300 301 302 302 303 303 304 304 303 302 302 300 301 301 302 303 305 306 306 306 308 309 309
297 296 296 295 294 293 293 294 295 295 296 297 299 297 295 293 293 294 294 296 298 298 300 301 301 301 302 301 303 304 302 299 300 297 300 301 301 302 304 304 304 304 305 306 306
297 295 295 295 294 293 293 294 296 297 297 300 300 298 294 294 293 294 294 294 297 300 302 303 303 294 293 296 298 294 297 297 297 295 299 299 300 301 302 300 300 302 303 304 306
294 294 294 294 295 293 293 296 295 297 297 298 298 296 294 293 293 292 293 293 294 299 303 301 296 291 292 294 294 290 292 293 292 292 292 293 293 297 298 299 299 300 301 302 304
294 294 294 294 295 292 293 294 294 296 296 294 294 295 293 294 292 291 292 292 292 294 295 293 291 289 290 289 291 290 290 291 290 291 291 291 292 293 294 293 295 296 298 300 302
294 294 292 292 295 291 292 294 294 293 293 293 293 293 293 294 291 290 291 292 293 292 291 291 290 289 289 290 291 290 290 290 290 291 292 292 292 293 293 293 293 294 295 296 298
293 293 291 291 292 291 292 293 293 293 294 294 292 292 293 293 292 290 291 292 291 290 290 290 290 290 290 291 291 292 292 291 291 292 291 291 292 293 293 294 294 294 295 297 297
291 291 291 291 291 291 291 292 292 293 293 293 294 291 291 292 291 290 291 291 290 290 289 289 290 290 292 291 291 291 293 292 292 292 291 291 290 293 294 294 296 297 299 300 301
290 291 291 291 291 290 290 291 292 293 285 291 292 292 291 293 291 290 291 291 290 290 290 290 290 291 291 291 290 291 292 292 293 292 291 291 290 292 293 295 294 296 297 299 299
289 290 290 290 290 291 291 292 293 293 285 290 291 291 290 291 290 290 291 291 290 290 289 290 289 290 290 290 290 291 291 291 292 292 291 293 292 291 292 293 295 296 297 298 298
289 290 290 290 290 290 290 292 294 285 284 290 292 291 290 290 291 290 290 291 290 289 290 290 290 290 290 290 290 291 292 292 293 292 287 294 293 293 293 294 295 296 297 297 298
290 290 290 290 290 290 291 293 285 285 287 291 291 291 290 290 290 290 289 289 289 283 288 290 290 289 290 290 291 291 290 284 286 283 289 292 293 293 294 295 295 296 296 298 301
290 290 290 290 291 291 292 286 285 283 290 291 290 291 290 290 290 289 289 287 289 287 285 287 284 288 289 290 291 291 292 289 289 292 292 293 294 294 295 296 296 296 297 297 297
290 290 290 290 291 292 291 285 286 289 291 291 287 288 288 290 288 287 286 288 290 289 284 286 288 289 290 290 290 292 290 292 294 292 293 293 293 294 295 294 295 296 296 296 295
290 289 288 290 290 291 288 286 284 291 291 290 288 285 289 289 287 286 286 288 290 290 289 284 285 289 290 291 290 290 291 288 290 285 289 292 292 293 293 293 295 295 295 295 295
289 289 288 289 289 289 282 278 289 290 290 286 287 290 286 286 285 286 288 289 288 288 289 286 285 287 289 288 289 289 291 285 286 290 292 291 291 291 292 294 295 295 295 294 295
288 286 287 288 286 284 277 279 289 289 289 290 287 285 289 288 282 282 288 285 288 288 286 290 283 284 287 289 288 284 288 289 284 286 290 290 291 292 293 294 294 294 294 295 295
288 288 288 288 282 277 281 283 286 288 289 290 287 288 283 287 285 281 278 289 289 287 283 287 281 285 282 286 286 285 288 290 289 289 289 290 290 292 293 294 293 294 294 295 294
288 282 288 288 287 283 277 281 282 287 288 289 290 288 285 282 284 283 287 287 289 288 289 290 290 286 288 288 288 288 289 289 289 289 289 289 291 291 294 293 293 293 295 295 295
289 287 287 279 284 286 284 275 283 284 287 287 283 285 283 282 283 284 286 285 287 288 289 284 284 280 285 288 288 288 289 288 287 288 287 289 289 292 293 293 293 293 295 294 295
289 289 288 287 286 286 284 281 283 284 283 283 284 287 284 282 284 285 286 287 287 287 285 278 284 282 287 287 287 288 288 288 287 287 287 288 290 292 293 293 292 292 294 294 295
289 289 288 285 283 280 280 285 287 287 286 287 287 287 287 286 287 287 286 287 287 287 288 287 287 287 286 279 278 283 285 287 288 289 285 289 290 293 293 293 293 293 293 293 293
Wind_Speed
23 24 24 24 24 23 22 22 21 21 21 20 18 15 9 4 10 12 15 18 20 20 15 9 5 5 1 2 3 4 4 2 3 4 2 7 7 9 12 5 9 4 4 6 5
24 24 25 24 24 24 23 22 21 19 19 20 18 15 10 5 6 18 20 19 19 18 15 11 6 6 3 2 2 4 4 7 2 1 4 10 6 16 7 14 5 9 8 8 8
24 25 25 24 24 23 22 22 21 20 20 19 17 13 7 2 3 22 22 21 19 15 14 8 5 4 3 2 5 2 5 0 2 7 16 8 11 8 6 7 2 6 11 15 9
25 25 26 26 25 25 23 22 21 21 19 17 14 6 2 1 2 23 21 21 18 13 10 6 3 3 4 3 5 1 4 5 6 17 13 8 15 10 9 16 22 22 22 16 12
26 27 26 26 26 25 23 22 21 19 16 13 10 3 4 12 13 21 20 17 14 11 9 7 11 3 4 3 5 3 6 13 19 19 20 20 11 14 17 31 26 23 21 19 17
26 28 27 27 26 23 22 22 18 12 11 12 13 7 8 12 21 19 17 13 14 11 8 12 8 6 6 3 3 6 7 13 11 22 12 12 10 5 10 16 19 18 21 23 25
28 28 28 28 26 23 23 19 14 9 8 4 7 14 32 18 21 17 15 13 14 11 10 11 14 10 3 2 9 4 5 5 13 21 6 28 4 5 9 18 24 25 20 19 21
29 29 28 28 27 23 23 14 11 10 8 8 7 7 11 20 19 18 14 8 7 7 11 11 6 12 8 6 5 6 5 5 5 22 8 13 7 6 21 34 33 34 35 32 29
28 31 28 28 28 24 16 16 13 9 11 9 10 7 5 24 30 30 16 21 6 12 12 9 12 11 15 4 4 8 3 4 11 14 10 10 10 8 35 36 34 34 36 41 40
30 28 26 25 25 27 13 5 24 10 8 10 19 6 19 17 29 32 15 26 10 6 7 11 10 5 8 8 2 3 4 4 5 8 11 18 23 13 24 31 34 38 44 38 44
30 29 24 21 21 27 23 2 4 11 33 24 17 11 15 10 26 35 26 21 16 14 5 12 12 9 6 5 2 2 3 6 4 3 15 8 26 24 25 31 29 32 37 43 35
30 29 23 17 16 18 21 17 11 3 5 17 25 26 14 15 20 37 23 12 20 10 3 6 11 4 3 3 4 3 3 4 9 12 11 10 29 24 20 14 23 27 33 37 36
30 26 23 15 9 15 21 19 8 3 3 14 15 25 25 8 19 31 26 9 10 9 9 9 2 6 3 5 14 4 3 4 7 16 6 11 11 5 9 17 21 21 25 28 32
28 24 23 18 6 20 19 14 5 3 5 13 14 16 26 2 13 27 22 9 8 5 4 6 6 6 4 7 9 4 4 8 12 11 4 9 8 5 8 15 9 22 26 32 32
26 21 22 20 14 23 18 13 3 1 5 15 11 19 20 14 11 25 23 20 7 6 5 2 6 5 6 8 8 4 10 13 11 8 6 2 2 7 8 6 16 22 30 38 35
22 20 20 20 17 19 14 6 2 6 2 8 8 9 13 14 9 15 22 11 11 5 7 2 3 2 4 10 2 9 8 5 1 2 3 3 2 7 5 15 20 23 33 38 45
16 18 23 24 27 19 11 3 5 6 5 8 5 6 7 8 8 10 6 15 8 6 8 6 4 7 4 5 6 15 7 4 6 5 3 4 8 9 16 20 17 21 29 36 38
16 17 20 24 20 13 5 7 11 2 4 3 5 3 5 9 6 9 4 5 8 6 2 5 8 8 10 1 4 5 4 3 3 4 11 10 6 5 18 26 25 34 34 45 47
10 28 28 26 19 6 6 8 4 2 6 7 5 6 6 6 4 7 6 4 4 8 4 3 6 9 10 9 0 4 3 4 4 6 6 4 6 12 14 16 25 33 40 44 50
12 19 34 21 16 16 9 7 3 5 8 5 4 2 5 7 7 7 5 3 3 5 1 3 3 8 10 6 1 3 4 4 2 4 5 6 13 11 17 20 27 28 42 53 53
11 8 33 17 17 22 5 3 2 13 11 4 2 4 0 2 2 4 4 4 5 6 6 3 3 6 6 2 5 4 2 3 2 2 4 6 5 10 20 21 26 30 46 49 56
18 6 32 17 16 7 3 1 6 10 12 5 2 1 4 3 2 2 2 5 7 5 3 2 3 2 8 11 7 4 3 4 3 7 7 13 12 16 11 25 29 37 45 46 52
6 8 20 23 5 4 5 6 4 9 7 5 4 4 2 4 4 3 3 6 15 2 1 2 2 4 9 4 3 4 3 7 6 9 15 11 9 13 23 22 32 34 48 40 44
5 5 9 18 13 5 3 4 6 9 3 8 5 4 5 4 2 5 4 5 9 13 24 17 4 7 10 11 9 13 15 14 13 8 14 12 21 26 19 21 31 39 34 39 40
8 4 5 3 7 6 2 2 3 5 4 6 6 1 3 3 9 3 4 7 19 23 11 4 6 5 8 15 15 18 19 17 14 19 10 22 22 19 15 18 28 37 31 43 40
5 3 3 2 3 3 4 2 4 3 2 4 3 4 3 4 8 16 13 11 10 5 2 2 6 4 16 17 17 23 19 18 20 21 17 21 23 9 24 26 25 35 37 39 37
8 2 2 1 1 3 3 4 4 0 7 14 8 5 12 13 15 20 26 31 24 18 15 9 6 8 16 3 5 10 10 15 8 5 6 8 12 12 15 18 21 27 33 39 41
Wind_Direction
1 354 353 349 347 345 343 341 338 336 332 330 335 335 326 6 32 14 11 358 349 351 351 343 351 327 98 123 133 122 68 202 245 173 284 3 2 354 340 314 329 312 298 279 271
1 360 356 351 348 343 340 338 335 334 327 326 328 328 323 283 347 18 11 356 355 357 4 6 13 42 103 88 97 92 122 211 235 12 358 320 12 319 338 333 323 325 334 302 235
5 0 356 353 348 344 341 336 334 331 327 322 324 325 320 293 25 9 7 1 356 346 0 359 5 43 77 48 17 80 182 39 58 33 351 307 317 335 327 310 327 330 337 335 221
4 0 357 352 349 348 341 336 335 330 329 326 329 334 20 87 33 8 358 356 356 350 348 28 50 56 65 56 10 53 43 32 329 331 329 311 315 307 232 260 285 289 295 294 248
2 359 355 352 349 349 342 338 336 334 342 350 357 24 97 69 20 4 350 345 353 3 17 47 58 56 72 12 355 34 348 334 322 332 331 310 268 269 274 282 285 282 280 281 274
358 358 355 352 351 350 344 341 334 351 22 39 45 67 101 68 20 359 0 351 1 19 50 56 55 66 91 74 54 320 316 312 336 356 18 352 287 286 269 299 303 297 284 281 275
2 358 355 353 353 353 350 342 349 4 12 38 85 69 67 44 23 12 23 19 20 44 70 59 67 88 47 55 344 337 0 340 33 356 21 347 290 212 272 331 333 324 316 299 282
4 356 355 352 354 360 0 6 20 31 58 58 70 92 80 28 21 17 19 51 47 71 77 79 82 41 33 325 34 28 48 5 358 6 338 15 261 299 333 333 322 314 310 305 296
2 0 355 353 354 5 19 59 39 61 61 63 53 77 49 24 24 21 21 17 87 91 92 89 57 57 17 26 51 23 18 0 322 349 347 34 294 285 313 321 313 309 304 298 293
0 358 355 354 355 2 22 104 53 66 91 59 48 61 25 21 21 14 18 26 34 133 69 45 58 67 24 33 59 336 348 316 294 320 347 310 283 289 298 293 287 292 292 288 288
358 358 1 355 1 1 10 179 54 36 57 63 42 57 29 42 19 20 16 27 53 56 75 35 58 39 7 38 150 205 232 269 271 304 335 309 288 297 301 285 279 281 284 287 282
359 358 8 1 13 11 26 72 50 44 38 45 41 37 33 36 16 18 25 50 37 48 29 51 57 337 325 52 35 338 314 334 307 337 328 298 295 304 287 275 282 286 288 293 297
1 4 12 6 21 17 37 44 25 59 85 23 19 24 7 31 35 9 20 29 42 39 35 79 71 341 28 41 20 0 47 318 297 325 278 335 286 8 325 326 330 331 322 314 310
2 7 7 16 11 11 21 20 21 108 77 357 359 9 4 41 24 18 31 25 33 37 12 77 4 11 11 32 12 348 347 310 304 335 312 43 291 356 2 338 335 331 333 334 327
4 9 10 15 23 17 353 357 44 143 62 319 355 22 35 77 9 19 22 51 46 33 51 323 349 3 20 354 343 281 312 290 294 293 328 335 296 277 344 337 328 321 323 322 325
7 11 12 9 2 359 352 357 62 43 355 340 6 354 17 21 22 24 30 54 49 22 23 29 335 37 351 321 322 304 298 326 86 147 38 245 127 300 0 310 312 313 323 323 326
14 17 2 359 352 349 354 57 46 69 296 345 345 346 15 356 6 13 22 44 51 34 357 340 354 338 58 338 329 3 6 358 4 10 231 348 305 265 294 289 297 324 326 333 336
41 16 14 8 356 352 51 58 62 257 295 347 354 344 32 8 8 359 23 38 31 56 58 23 343 9 348 43 292 340 42 105 304 318 296 283 245 262 291 307 336 340 339 328 325
42 38 27 21 15 33 65 49 141 245 340 334 358 36 347 351 33 11 18 29 56 42 105 49 303 321 312 327 166 341 23 294 271 253 271 240 281 299 298 349 341 336 337 330 325
33 33 19 20 46 74 69 89 59 7 340 0 56 103 358 340 14 16 358 339 42 60 83 257 301 300 316 334 69 97 279 24 349 345 302 285 300 285 329 333 337 335 332 326 320
38 36 14 28 47 56 77 146 325 13 24 60 5 0 106 340 23 322 309 322 34 346 340 149 142 292 345 338 313 346 58 5 133 209 280 303 282 294 308 330 338 326 323 322 318
42 50 16 35 51 44 47 191 348 352 4 19 83 61 35 353 320 328 262 217 4 348 346 350 195 262 242 281 294 164 203 118 112 283 271 271 272 274 327 325 331 321 324 324 330
52 44 23 45 63 3 351 351 14 10 354 358 350 64 333 9 341 190 241 287 318 44 60 320 296 307 337 355 339 92 282 304 269 282 259 273 286 297 317 323 325 326 329 328 335
43 25 20 45 57 99 38 349 346 357 335 356 345 51 18 326 266 289 271 297 316 308 301 292 239 197 258 256 291 282 276 273 272 271 272 275 287 294 316 327 328 331 325 328 341
45 66 26 333 0 35 58 146 335 351 338 342 358 57 133 311 312 254 294 304 293 286 286 159 236 198 235 275 275 270 275 276 257 251 257 275 282 285 316 318 322 327 327 332 333
62 23 340 317 319 4 358 247 189 281 149 290 172 254 162 216 216 286 290 293 275 276 207 305 271 300 282 268 264 272 273 271 264 262 260 257 265 290 304 304 327 332 328 327 331
30 64 335 242 86 80 231 220 244 282 264 232 244 314 302 275 273 280 277 268 258 270 275 265 273 293 286 261 306 278 244 243 244 230 211 256 280 297 292 295 318 325 329 327 332